Content
SEND FEEDBACK

Daily
Averages
Monthly
Summary
United States of America

TAMUNING, GUAM


Home > North America > United States > Guam
Elevation: 76 meters     Latitude: 13 29N     Longitude: 144 47E

WEATHER
 
SELECT A DAY
Number of Records: 357,336;   Date Range: 1/1/95 - 12/26/14
 
SHARE

PRINT THIS DATA

[ ← Previous Day ]
WEATHER ALMANAC - 5 NOVEMBER, 2013
[ Next Day → ]
[ °F ]   °C
Weather ElementAverageHighLow
Temperature26.7 °C27.5 °C (1:58 pm)25.6 °C (4:58 am)
Dewpoint25.4 °C26 °C (10:22 am)23.5 °C (2:58 am)
Humidity92.5 %100 % (10:22 am)83 % (2:58 am)
Barometer1010.2 hPa1012.5 hPa (8:47 am)1007.5 hPa (3:58 pm)
Wind Speed25.9 km/h37 km/h (8:47 am)
Wind Gust51.8 km/h (8:47 am)
Weather ElementAverage
Visibility15 km
Wind DirectionENE (61.7 °)

Weather ElementTotal
Precipitation3.05 mm
Cooling Degree Days8.2 (Base 18.3)
Growing Degree Days16.6 (Base 10)
Averaged from 83 records on 5 November, 2013
WEATHER CONDITIONS BREAKOUT
WIND DIRECTION BREAKOUT
WEATHER BY HOUR - 5 NOVEMBER, 2013
[ °F ]   °C
Local TimeTemperatureDewpointHumidityBarometerVisibilityWind DirectionWind SpeedGust SpeedPrecipitationEventsConditions
12:18 AM27 °C24 °C84 %1011.9 hPa16.1 kmNE (50°)29.6 km/hMostly Cloudy
12:23 AM27 °C24 °C84 %1011.9 hPa16.1 kmENE (60°)27.8 km/hScattered Clouds
12:58 AM26.6 °C24.2 °C87 %1010.5 hPa16.1 kmNE (50°)25.9 km/hScattered Clouds
1:58 AM26.7 °C24.5 °C88 %1009.8 hPa16.1 kmNE (50°)24.1 km/hPartly Cloudy
2:58 AM26.5 °C23.5 °C83 %1009.5 hPa16.1 kmNE (50°)24.1 km/hPartly Cloudy
3:48 AM27 °C25 °C89 %1010.5 hPa16.1 kmNE (50°)27.8 km/hMostly Cloudy
3:53 AM27 °C24 °C84 %1010.5 hPa16.1 kmNE (50°)22.2 km/hScattered Clouds
3:58 AM26.5 °C24 °C86 %1009.5 hPa16.1 kmNE (50°)29.6 km/hScattered Clouds
4:47 AM26 °C25 °C94 %1010.5 hPa16.1 kmNE (50°)29.6 km/hRainLight Rain
4:58 AM25.6 °C24 °C91 %1009.5 hPa8 kmNE (40°)20.4 km/h42.6 km/h0.51 mmRainLight Rain
5:02 AM26 °C24 °C89 %1010.5 hPa16.1 kmNE (40°)18.5 km/hScattered Clouds
5:58 AM26.3 °C24.5 °C90 %1009.8 hPa16.1 kmNE (50°)27.8 km/h0 mmPartly Cloudy
6:58 AM26.6 °C24.8 °C90 %1010.2 hPa16.1 kmNE (50°)29.6 km/h37 km/h0.25 mmPartly Cloudy
7:28 AM27 °C24 °C84 %1011.5 hPa16.1 kmNE (40°)27.8 km/hMostly Cloudy
7:53 AM27 °C24 °C84 %1011.5 hPa16.1 kmNE (40°)29.6 km/hScattered Clouds
7:58 AM27.2 °C24.6 °C86 %1010.5 hPa16.1 kmNE (40°)31.5 km/hScattered Clouds
8:47 AM27 °C25 °C89 %1012.5 hPa11.3 kmNE (40°)37 km/h51.8 km/hRainLight Rain
8:58 AM25.6 °C24.5 °C94 %1011.2 hPa11.3 kmNE (40°)27.8 km/h0.25 mmRainLight Rain
9:01 AM26 °C25 °C94 %1012.2 hPa16.1 kmNE (40°)25.9 km/hScattered Clouds
9:46 AM27 °C25 °C89 %1012.5 hPa16.1 kmENE (60°)24.1 km/h38.9 km/hMostly Cloudy
9:49 AM27 °C25 °C89 %1012.5 hPa14.5 kmNE (50°)37 km/h44.4 km/hLight Drizzle
9:58 AM26 °C25 °C94 %1011.2 hPa3.2 kmENE (60°)25.9 km/h44.4 km/h0 mmRainRain
10:03 AM26 °C25 °C94 %1012.2 hPa3.2 kmENE (60°)22.2 km/hRainLight Rain
10:07 AM26 °C25 °C94 %1012.2 hPa11.3 kmENE (60°)22.2 km/hMostly Cloudy
10:22 AM26 °C26 °C100 %1011.9 hPa16.1 kmENE (60°)20.4 km/hMostly Cloudy
10:27 AM26 °C25 °C94 %1011.9 hPa16.1 kmENE (70°)20.4 km/hScattered Clouds
10:58 AM26.6 °C25.5 °C94 %1011.2 hPa16.1 kmENE (60°)25.9 km/h1.02 mmPartly Cloudy
11:08 AM27 °C26 °C94 %1011.5 hPa16.1 kmNE (50°)25.9 km/hMostly Cloudy
11:13 AM27 °C26 °C94 %1011.2 hPa16.1 kmNE (50°)27.8 km/hMostly Cloudy
11:19 AM26 °C26 °C100 %1011.2 hPa12.9 kmNE (50°)27.8 km/hRainRain
11:39 AM26 °C26 °C100 %1010.8 hPa11.3 kmENE (60°)25.9 km/h37 km/hRainLight Rain
11:43 AM26 °C26 °C100 %1010.8 hPa16.1 kmENE (70°)22.2 km/hMostly Cloudy
11:52 AM26 °C26 °C100 %1010.5 hPa11.3 kmENE (60°)29.6 km/h37 km/hRainLight Rain
11:57 AM26 °C25 °C94 %1010.5 hPa11.3 kmENE (70°)25.9 km/hLight Drizzle
11:58 AM26.2 °C25.2 °C94 %1009.5 hPa11.3 kmENE (70°)24.1 km/h37 km/h0.51 mmLight Drizzle
12:03 PM26 °C26 °C100 %1010.5 hPa14.5 kmENE (70°)27.8 km/hRainLight Rain
12:04 PM26 °C26 °C100 %1010.2 hPa14.5 kmENE (70°)27.8 km/hScattered Clouds
12:09 PM26 °C25 °C94 %1010.2 hPa14.5 kmENE (70°)27.8 km/hMostly Cloudy
12:14 PM27 °C26 °C94 %1010.2 hPa16.1 kmENE (70°)29.6 km/h38.9 km/hScattered Clouds
12:58 PM27.3 °C26 °C93 %1009.5 hPa16.1 kmENE (70°)25.9 km/h0 mmScattered Clouds
1:03 PM27 °C26 °C94 %1009.8 hPa16.1 kmENE (70°)25.9 km/hMostly Cloudy
1:13 PM27 °C25 °C89 %1009.8 hPa16.1 kmENE (60°)27.8 km/hMostly Cloudy
1:18 PM27 °C26 °C94 %1009.8 hPa16.1 kmENE (70°)24.1 km/hScattered Clouds
1:58 PM27.5 °C25.8 °C90 %1008.1 hPa16.1 kmENE (70°)25.9 km/hScattered Clouds
2:12 PM27 °C26 °C94 %1008.8 hPa8 kmENE (60°)25.9 km/hRainLight Rain
2:22 PM26 °C26 °C100 %1008.8 hPa12.9 kmENE (60°)25.9 km/hScattered Clouds
2:58 PM26.8 °C25.2 °C91 %1007.8 hPa16.1 kmENE (70°)27.8 km/h0.51 mmPartly Cloudy
3:48 PM27 °C26 °C94 %1008.5 hPa16.1 kmENE (60°)22.2 km/hMostly Cloudy
3:58 PM27.1 °C25.8 °C93 %1007.5 hPa16.1 kmNE (50°)27.8 km/hMostly Cloudy
4:08 PM27 °C26 °C94 %1008.8 hPa16.1 kmENE (60°)22.2 km/hMostly Cloudy
4:13 PM27 °C26 °C94 %1008.8 hPa16.1 kmENE (60°)22.2 km/hMostly Cloudy
4:18 PM27 °C26 °C94 %1008.8 hPa16.1 kmNE (50°)27.8 km/h37 km/hMostly Cloudy
4:23 PM27 °C26 °C94 %1008.8 hPa16.1 kmENE (60°)24.1 km/h37 km/hMostly Cloudy
4:28 PM27 °C26 °C94 %1009.1 hPa16.1 kmENE (60°)22.2 km/h37 km/hMostly Cloudy
4:38 PM27 °C26 °C94 %1009.1 hPa16.1 kmENE (60°)24.1 km/hMostly Cloudy
4:53 PM27 °C25 °C89 %1009.1 hPa16.1 kmENE (60°)22.2 km/hMostly Cloudy
4:58 PM27 °C25.5 °C91 %1008.1 hPa16.1 kmENE (60°)25.9 km/hMostly Cloudy
5:08 PM27 °C25 °C89 %1009.1 hPa16.1 kmENE (70°)22.2 km/h35.2 km/hScattered Clouds
5:23 PM27 °C25 °C89 %1009.1 hPa16.1 kmENE (70°)24.1 km/hMostly Cloudy
5:28 PM27 °C25 °C89 %1009.1 hPa16.1 kmENE (70°)20.4 km/hScattered Clouds
5:48 PM27 °C26 °C94 %1009.1 hPa16.1 kmENE (60°)27.8 km/hMostly Cloudy
5:53 PM27 °C26 °C94 %1009.5 hPa16.1 kmENE (60°)25.9 km/hScattered Clouds
5:55 PM27 °C26 °C94 %1009.5 hPa14.5 kmENE (60°)25.9 km/hLight Drizzle
5:58 PM26.9 °C25.9 °C94 %1008.5 hPa14.5 kmENE (60°)27.8 km/h0 mmLight Drizzle
6:06 PM27 °C26 °C94 %1009.5 hPa16.1 kmENE (60°)25.9 km/hScattered Clouds
6:36 PM27 °C26 °C94 %1009.8 hPa16.1 kmENE (60°)24.1 km/hMostly Cloudy
6:58 PM26.9 °C26 °C95 %1008.8 hPa16.1 kmENE (60°)27.8 km/h38.9 km/h0 mmMostly Cloudy
7:03 PM27 °C26 °C94 %1010.2 hPa16.1 kmENE (60°)22.2 km/h38.9 km/hScattered Clouds
7:58 PM27 °C25.6 °C92 %1009.8 hPa16.1 kmEast (80°)27.8 km/h37 km/hScattered Clouds
8:24 PM27 °C26 °C94 %1010.8 hPa14.5 kmENE (70°)25.9 km/hRainLight Rain
8:34 PM27 °C25 °C89 %1010.8 hPa16.1 kmEast (80°)29.6 km/h40.7 km/hPartly Cloudy
8:58 PM26.7 °C25.8 °C95 %1009.8 hPa16.1 kmEast (80°)29.6 km/h38.9 km/h0 mmClear
9:43 PM27 °C26 °C94 %1010.8 hPa16.1 kmEast (80°)29.6 km/hMostly Cloudy
9:48 PM27 °C26 °C94 %1010.8 hPa16.1 kmEast (80°)25.9 km/h37 km/hScattered Clouds
9:58 PM26.9 °C25.7 °C93 %1009.8 hPa16.1 kmENE (70°)29.6 km/hScattered Clouds
10:28 PM27 °C26 °C94 %1010.8 hPa16.1 kmEast (80°)25.9 km/hMostly Cloudy
10:33 PM27 °C26 °C94 %1010.8 hPa16.1 kmEast (80°)22.2 km/hScattered Clouds
10:43 PM27 °C26 °C94 %1010.8 hPa16.1 kmEast (80°)22.2 km/h35.2 km/hMostly Cloudy
10:53 PM27 °C26 °C94 %1011.2 hPa16.1 kmEast (90°)27.8 km/h35.2 km/hMostly Cloudy
10:58 PM27 °C25.8 °C93 %1010.2 hPa16.1 kmEast (80°)22.2 km/h35.2 km/hScattered Clouds
11:03 PM27 °C26 °C94 %1010.8 hPa16.1 kmEast (80°)24.1 km/h35.2 km/hMostly Cloudy
11:13 PM27 °C26 °C94 %1011.2 hPa16.1 kmEast (80°)27.8 km/h37 km/hScattered Clouds
11:58 PM26.5 °C25.3 °C93 %1009.5 hPa16.1 kmEast (90°)22.2 km/hScattered Clouds
Hourly data recorded from PGUA, located 0 kilometers away from Tamuning, Guam







STORIES FROM OUR PARTNERS